Simultaneous Nadir Overpasses (SNOs) Predictions

Prediction of SNOs between GOES-16 and METOP-B Satellite Orbit:

Table of predicted SNOs for the next 14.0 days since TLE Epoch: 9/2/2023
Index Date Time (GOES-16) GOES-16 Lat,Lon METOP-B Lat,Lon Distance(km) Time Diff (sec)
1 09/03/2023 14:29:13 -0.04, -75.22 -0.15, -74.82 45.69 80
2 09/05/2023 02:45:31 0.04, -75.22 -0.91, -79.41 478.35 80
3 09/06/2023 02:27:31 0.04, -75.22 0.20, -74.41 91.94 80
4 09/07/2023 14:43:41 -0.04, -75.25 0.80, -78.98 424.75 80
5 09/08/2023 14:25:41 -0.04, -75.26 -0.31, -73.98 145.80 80
6 09/10/2023 02:42:00 0.04, -75.27 -0.68, -78.58 377.25 80
7 09/11/2023 02:23:59 0.04, -75.28 0.43, -73.58 193.69 80
8 09/12/2023 14:40:10 -0.04, -75.32 0.56, -78.15 321.68 80
9 09/13/2023 14:22:08 -0.04, -75.34 -0.50, -73.14 249.83 80
10 09/15/2023 02:41:08 0.04, -75.36 -0.48, -77.74 271.60 80
